When you browse on this site, cookies collect data to enhance your experience and personalize the content and advertising you see.
Visit our Privacy Policy to learn more. By continuing to use the site, you agree to this use of cookies and data.
EN

Hourly Weather Dikhil

Today, 12 July, Sunday

Time Temperature Precipitation Wind Pressure Humidity
00:00 +37°C° 0 mm 2 mps 712 mmHg 25%
01:00 +37°C° 0 mm 2 mps 712 mmHg 26%
02:00 +36°C° 0 mm 2 mps 711 mmHg 26%
03:00 +36°C° 0 mm 2 mps 711 mmHg 28%
04:00 +35°C° 0 mm 4 mps 711 mmHg 31%
05:00 +35°C° 0 mm 5 mps 711 mmHg 34%
06:00 +34°C° 0 mm 6 mps 712 mmHg 37%
07:00 +36°C° 0 mm 6 mps 712 mmHg 33%
08:00 +38°C° 0 mm 7 mps 712 mmHg 29%
09:00 +40°C° 0 mm 8 mps 712 mmHg 26%
10:00 +41°C° 0 mm 7 mps 712 mmHg 22%
11:00 +42°C° 0 mm 6 mps 713 mmHg 19%
12:00 +45°C° 0 mm 6 mps 713 mmHg 16%
13:00 +45°C° 0 mm 5 mps 712 mmHg 15%
14:00 +46°C° 0 mm 5 mps 711 mmHg 15%
15:00 +47°C° 0 mm 5 mps 710 mmHg 14%
16:00 +46°C° 0 mm 5 mps 710 mmHg 14%
17:00 +46°C° 0 mm 5 mps 710 mmHg 14%
18:00 +44°C° 0 mm 4 mps 710 mmHg 14%
19:00 +43°C° 0 mm 5 mps 710 mmHg 18%
20:00 +42°C° 0 mm 5 mps 710 mmHg 21%
21:00 +40°C° 0 mm 5 mps 711 mmHg 24%
22:00 +38°C° 0 mm 4 mps 711 mmHg 26%
23:00 +38°C° 0 mm 3 mps 711 mmHg 28%

Tomorrow, 13 July, Monday

Time Temperature Precipitation Wind Pressure Humidity
00:00 +37°C° 0 mm 3 mps 712 mmHg 30%
01:00 +36°C° 0 mm 4 mps 711 mmHg 31%
02:00 +35°C° 0 mm 6 mps 711 mmHg 32%
03:00 +35°C° 0 mm 8 mps 710 mmHg 34%
04:00 +34°C° 0 mm 8 mps 711 mmHg 35%
05:00 +34°C° 0 mm 8 mps 711 mmHg 37%
06:00 +33°C° 0 mm 9 mps 711 mmHg 39%
07:00 +34°C° 0 mm 9 mps 712 mmHg 36%
08:00 +37°C° 0 mm 9 mps 712 mmHg 34%
09:00 +38°C° 0 mm 9 mps 712 mmHg 31%
10:00 +39°C° 0 mm 8 mps 712 mmHg 28%
11:00 +41°C° 0 mm 7 mps 712 mmHg 25%
12:00 +43°C° 0 mm 7 mps 712 mmHg 22%
13:00 +44°C° 0 mm 6 mps 711 mmHg 21%
14:00 +43°C° 0 mm 4 mps 710 mmHg 20%
15:00 +43°C° 0 mm 3 mps 710 mmHg 19%
16:00 +43°C° 0 mm 3 mps 710 mmHg 19%
17:00 +43°C° 0 mm 3 mps 710 mmHg 19%
18:00 +43°C° 0 mm 3 mps 710 mmHg 19%
19:00 +40°C° 0.1 mm 3 mps 710 mmHg 24%
20:00 +39°C° 0.1 mm 3 mps 711 mmHg 28%
21:00 +37°C° 0.1 mm 3 mps 711 mmHg 32%
22:00 +37°C° 0.2 mm 2 mps 712 mmHg 33%
23:00 +36°C° 0.2 mm 2 mps 712 mmHg 34%

Day after tomorrow, 14 July, Tuesday

Time Temperature Precipitation Wind Pressure Humidity
00:00 +35°C° 0.2 mm 1 mps 712 mmHg 35%
01:00 +35°C° 0.1 mm 3 mps 712 mmHg 37%
02:00 +34°C° 0.1 mm 4 mps 712 mmHg 40%
03:00 +34°C° 0.1 mm 5 mps 712 mmHg 42%
04:00 +33°C° 0 mm 6 mps 712 mmHg 45%
05:00 +32°C° 0 mm 7 mps 712 mmHg 48%
06:00 +32°C° 0 mm 8 mps 713 mmHg 50%
07:00 +33°C° 0 mm 8 mps 713 mmHg 46%
08:00 +34°C° 0 mm 8 mps 713 mmHg 42%
09:00 +35°C° 0 mm 8 mps 714 mmHg 38%
10:00 +38°C° 0 mm 8 mps 713 mmHg 33%
11:00 +39°C° 0 mm 7 mps 713 mmHg 29%
12:00 +41°C° 0 mm 6 mps 713 mmHg 24%
13:00 +41°C° 0 mm 5 mps 713 mmHg 23%
14:00 +42°C° 0 mm 4 mps 712 mmHg 22%
15:00 +42°C° 0 mm 3 mps 711 mmHg 21%
16:00 +42°C° 0 mm 3 mps 711 mmHg 21%
17:00 +42°C° 0 mm 3 mps 711 mmHg 21%
18:00 +42°C° 0 mm 3 mps 711 mmHg 21%
19:00 +40°C° 0.1 mm 2 mps 711 mmHg 23%
20:00 +39°C° 0.1 mm 2 mps 712 mmHg 26%
21:00 +38°C° 0.1 mm 2 mps 712 mmHg 28%
22:00 +37°C° 0 mm 1 mps 712 mmHg 29%
23:00 +36°C° 0 mm 1 mps 712 mmHg 30%

15 July, Wednesday

Time Temperature Precipitation Wind Pressure Humidity
00:00 +36°C° 0 mm 1 mps 712 mmHg 31%
01:00 +36°C° 0 mm 2 mps 712 mmHg 32%
02:00 +36°C° 0 mm 3 mps 712 mmHg 33%
03:00 +36°C° 0 mm 4 mps 712 mmHg 34%
04:00 +35°C° 0 mm 5 mps 712 mmHg 36%
05:00 +34°C° 0 mm 5 mps 713 mmHg 38%
06:00 +33°C° 0 mm 6 mps 713 mmHg 40%
07:00 +34°C° 0 mm 6 mps 714 mmHg 37%
08:00 +36°C° 0 mm 6 mps 714 mmHg 35%
09:00 +38°C° 0 mm 6 mps 715 mmHg 32%
10:00 +39°C° 0 mm 6 mps 714 mmHg 29%
11:00 +40°C° 0 mm 6 mps 714 mmHg 25%
12:00 +42°C° 0 mm 6 mps 714 mmHg 22%
13:00 +42°C° 0 mm 5 mps 713 mmHg 21%
14:00 +43°C° 0 mm 4 mps 712 mmHg 19%
15:00 +42°C° 0 mm 2 mps 711 mmHg 18%
16:00 +44°C° 0 mm 3 mps 711 mmHg 18%
17:00 +44°C° 0 mm 3 mps 711 mmHg 17%
18:00 +44°C° 0 mm 3 mps 711 mmHg 17%
19:00 +43°C° 0 mm 3 mps 712 mmHg 19%
20:00 +42°C° 0 mm 4 mps 712 mmHg 21%
21:00 +41°C° 0 mm 4 mps 713 mmHg 23%
22:00 +39°C° 0 mm 3 mps 713 mmHg 25%
23:00 +38°C° 0 mm 2 mps 713 mmHg 26%

16 July, Thursday

Time Temperature Precipitation Wind Pressure Humidity
00:00 +36°C° 0 mm 1 mps 713 mmHg 28%
01:00 +37°C° 0 mm 2 mps 712 mmHg 30%
02:00 +36°C° 0 mm 4 mps 712 mmHg 32%
03:00 +36°C° 0 mm 5 mps 712 mmHg 33%
04:00 +35°C° 0 mm 6 mps 712 mmHg 36%
05:00 +34°C° 0 mm 8 mps 712 mmHg 39%
06:00 +33°C° 0 mm 9 mps 713 mmHg 42%
07:00 +34°C° 0 mm 9 mps 713 mmHg 40%
08:00 +35°C° 0 mm 9 mps 713 mmHg 37%
09:00 +37°C° 0 mm 9 mps 714 mmHg 34%
10:00 +38°C° 0 mm 8 mps 713 mmHg 31%
11:00 +39°C° 0 mm 8 mps 713 mmHg 29%
12:00 +40°C° 0 mm 8 mps 713 mmHg 27%
13:00 +40°C° 0 mm 6 mps 712 mmHg 25%
14:00 +41°C° 0 mm 5 mps 712 mmHg 23%
15:00 +42°C° 0 mm 4 mps 711 mmHg 22%
16:00 +40°C° 0 mm 6 mps 711 mmHg 28%
17:00 +36°C° 0 mm 7 mps 711 mmHg 34%
18:00 +34°C° 0 mm 9 mps 711 mmHg 40%
19:00 +35°C° 0 mm 9 mps 711 mmHg 38%
20:00 +35°C° 0 mm 8 mps 712 mmHg 37%
21:00 +35°C° 0 mm 7 mps 713 mmHg 35%
22:00 +35°C° 0 mm 7 mps 713 mmHg 34%
23:00 +35°C° 0 mm 8 mps 713 mmHg 33%

17 July, Friday

Time Temperature Precipitation Wind Pressure Humidity
00:00 +35°C° 0 mm 8 mps 713 mmHg 32%
01:00 +34°C° 0 mm 8 mps 713 mmHg 34%
02:00 +33°C° 0 mm 9 mps 712 mmHg 37%
03:00 +32°C° 0 mm 9 mps 712 mmHg 39%
04:00 +32°C° 0 mm 8 mps 712 mmHg 39%
05:00 +32°C° 0 mm 7 mps 712 mmHg 40%
06:00 +32°C° 0 mm 7 mps 713 mmHg 40%
07:00 +32°C° 0 mm 7 mps 713 mmHg 39%
08:00 +33°C° 0 mm 8 mps 714 mmHg 37%
09:00 +34°C° 0 mm 8 mps 714 mmHg 35%
10:00 +35°C° 0 mm 8 mps 714 mmHg 32%
11:00 +38°C° 0 mm 8 mps 713 mmHg 29%
12:00 +39°C° 0 mm 8 mps 713 mmHg 26%
13:00 +40°C° 0 mm 7 mps 712 mmHg 26%
14:00 +40°C° 0 mm 6 mps 712 mmHg 25%
15:00 +40°C° 0 mm 5 mps 711 mmHg 25%
16:00 +40°C° 0 mm 4 mps 711 mmHg 25%
17:00 +39°C° 0 mm 3 mps 711 mmHg 25%
18:00 +39°C° 0 mm 2 mps 711 mmHg 26%
19:00 +38°C° 0 mm 2 mps 711 mmHg 27%
20:00 +38°C° 0 mm 3 mps 712 mmHg 28%
21:00 +37°C° 0 mm 3 mps 712 mmHg 28%
22:00 +37°C° 0.1 mm 4 mps 712 mmHg 31%
23:00 +36°C° 0.1 mm 4 mps 712 mmHg 33%
Show more